Location: Sobotiste
(48.7170°N, 17.4000°E)
Time: 12:17:35
(UTC+01:00)

Gurwin Techsat 1B - Visible Passes

Search period start: 15 March 2026 00:00
Search period end: 25 March 2026 00:00
Orbit: 809 x 812 km, 99.0° (Epoch: 14 March)

Date Brightness Start Highest point End Pass type
(mag) Time Alt. Az. Time Alt. Az. Time Alt. Az.
15 Mar 11.6 03:28:21 10° ENE 03:30:23 12° E 03:32:25 10° ESE visible
15 Mar 8.8 05:05:46 10° NNE 05:11:06 79° ESE 05:16:25 10° SSW visible
16 Mar 9.6 04:42:17 10° NNE 04:47:28 51° E 04:52:36 10° S visible
17 Mar 10.4 04:18:59 10° NNE 04:23:45 33° E 04:28:28 10° SSE visible
18 Mar 11.1 03:55:56 10° NE 03:59:55 21° E 04:03:54 10° SE visible
19 Mar 11.5 03:33:29 10° ENE 03:36:02 13° E 03:38:35 10° ESE visible
19 Mar 8.7 05:11:19 10° NNE 05:16:40 86° ESE 05:21:59 10° SSW visible
20 Mar 9.4 04:47:49 10° NNE 04:53:03 56° ESE 04:58:14 10° S visible
21 Mar 10.3 04:24:27 10° NNE 04:29:21 36° E 04:34:11 10° SSE visible
22 Mar 11.0 04:01:21 10° NE 04:05:33 23° E 04:09:43 10° SE visible
23 Mar 11.4 03:38:42 10° NE 03:41:40 15° E 03:44:36 10° ESE visible
23 Mar 8.7 05:16:53 10° NNE 05:22:14 87° WNW 05:27:32 10° SSW visible
24 Mar 9.2 04:53:21 10° NNE 04:58:37 61° ESE 05:03:51 10° S visible
